User: anonymous   Login
Location: Unspecified
(0.0000°N, 0.0000°E)
Time: 09:32:43
(UTC+01:00)
Language:

NOAA 12 - Orbit

View from above orbital plane
View from above orbital plane
View from above satellite
View from above satellite

Ground track
Ground track

The orbit data is extracted from the following two-line orbital elements,

1 21263U 91032A   14331.54500359  .00000104  00000-0  62179-4 0  5183
2 21263 098.6499 356.3896 0014823 120.9486 032.1686 14.25705364223830
Epoch (UTC): 27 November 2014 13:04:48
Eccentricity: 0.0014823
inclination: 98.6499°
perigee height: 795 km
apogee height: 817 km
right ascension of ascending node: 356.3896°
argument of perigee: 120.9486°
revolutions per day: 14.25705364
mean anomaly at epoch: 32.1686°
orbit number at epoch: 22383

The dashed part of the orbit path shows where the satellite is in the earth's shadow,  

DLR